#timestamp,LO_Frequency,Hit,StdDev 
1682866845.9,286047002.7,E
1682866855.8,286046999.9,N
1682866875.7,286046998.4,P
1682866895.5,286046996.6,P
1682866915.3,286046998.4,N
1682866935.2,286046998.6,N
1682866955.9,286046998.8,N
1682866975.7,286046998.2,N
1682866995.6,286046998.2,N
1682867015.4,286046998.3,N
1682867035.3,286046998.2,N
1682867055.1,286046998.9,N
1682867056.0,286046998.9,N
1682867075.8,286046998.3,N
1682867095.7,286046996.9,Y
1682867115.5,286046999.9,P
1682867135.3,286047000.0,N
1682867155.2,286047000.0,N
1682867175.0,286046998.2,N
1682867175.9,286046998.2,N
1682867195.8,286046998.7,N
1682867215.6,286046999.0,N
1682867235.4,286047000.8,N
1682867255.3,286046998.8,N
1682867275.1,286046999.4,N
1682867295.8,286046998.3,N
1682867315.7,286047001.2,N
1682867335.5,286046998.5,N
1682867355.3,286046999.4,N
1682867375.2,286046996.7,Y
1682867395.0,286046999.3,P
1682867395.9,286046999.3,P
1682867415.8,286046995.4,P
1682867435.6,286046996.0,N
1682867455.4,286046993.4,Y
1682867475.3,286046999.2,P
1682867495.1,286047000.0,N
1682867515.9,286047000.4,N
1682867535.7,286047002.8,N
1682867555.5,286047002.2,N
1682867575.4,286047002.8,N
1682867595.2,286047002.8,N
1682867615.0,286046999.7,N
1682867615.9,286046999.7,N
1682867635.8,286046999.7,N
1682867655.6,286047002.8,N
1682867675.5,286046999.0,N
1682867695.3,286046996.7,N
1682867715.1,286047001.0,N
1682867735.9,286046999.8,N
1682867755.7,286047001.2,N
1682867775.5,286046998.4,N
1682867795.4,286046997.1,N
1682867815.2,286046999.4,N
1682867835.0,286046999.6,N
1682867836.0,286046999.6,N
1682867855.8,286046999.1,N
1682867875.6,286046998.7,N
1682867895.5,286046998.5,N
1682867915.3,286046998.5,N
1682867935.1,286046998.1,N
1682867955.9,286047002.8,N
1682867975.7,286047000.3,N
1682867995.6,286047000.1,N
1682868015.4,286047000.4,N
1682868035.2,286047000.7,N
1682868055.1,286047002.3,N
1682868056.0,286047002.3,N
1682868075.8,286047000.3,N
1682868095.6,286046998.2,N
1682868115.5,286046999.7,N
1682868135.3,286047000.1,N
1682868155.2,286047002.2,N
1682868175.9,286046999.7,N
1682868195.7,286047002.7,N
1682868215.6,286047004.1,N
1682868235.4,286046999.9,N
1682868255.2,286047001.4,N
1682868275.1,286046999.7,N
1682868276.0,286046999.7,N
1682868295.8,286047000.0,N
1682868315.7,286047000.3,N
1682868335.5,286047001.1,N
1682868355.3,286047000.2,N
1682868375.2,286047002.4,N
1682868395.0,286047000.3,N
1682868395.9,286047000.3,N
1682868415.8,286046999.8,N
1682868435.6,286047000.5,N
1682868455.4,286046999.2,N
1682868475.3,286046999.3,N
1682868495.1,286046999.0,N
1682868515.8,286046997.5,N
1682868535.7,286046997.7,N
1682868555.5,286046994.9,Y
1682868575.4,286046994.0,P
1682868595.2,286046994.1,N
1682868615.0,286046994.7,N
1682868615.9,286046994.7,N
1682868635.8,286046996.2,N
1682868655.6,286046995.2,N
1682868675.4,286046995.2,N
1682868695.3,286046999.3,N
1682868715.1,286046999.5,N
1682868735.9,286047001.1,N
1682868755.7,286047002.7,N
1682868775.5,286047002.4,N
1682868795.4,286047002.3,N
1682868815.2,286047001.9,N
1682868835.0,286047002.3,N
1682868836.0,286047002.3,N
1682868855.8,286046998.1,N
1682868875.6,286046997.1,N
1682868895.5,286046997.4,N
1682868915.3,286046997.1,N
1682868935.1,286046995.9,N
1682868955.9,286046994.6,N
1682868975.7,286046991.9,N
1682868995.6,286046994.1,N
1682869015.4,286046992.2,N
1682869035.2,286046994.0,N
1682869055.1,286046993.5,N
1682869056.0,286046993.5,N
1682869075.8,286046994.1,N
1682869095.6,286046991.7,N
1682869115.5,286046994.8,N
1682869135.3,286046991.8,N
1682869155.2,286046994.5,N
1682869175.9,286046991.9,N
1682869195.7,286046992.2,N
1682869215.6,286046994.3,N
1682869235.4,286046992.2,N
1682869255.2,286046994.3,N
1682869275.1,286046993.0,N
1682869276.0,286046993.0,N
1682869295.8,286046991.8,N
1682869315.7,286046993.3,N
1682869335.5,286046995.7,N
1682869355.3,286046995.5,N
1682869375.2,286046993.5,N
1682869395.0,286046991.9,Y
1682869395.9,286046991.9,P
1682869415.8,286046999.3,N
1682869435.6,286046999.2,N
1682869455.4,286047000.8,N
1682869475.3,286046998.3,N
1682869495.1,286046998.3,N
1682869515.8,286046999.0,N
1682869535.7,286046999.5,N
1682869555.5,286046998.1,N
1682869575.4,286047000.4,N
1682869595.2,286047000.3,N
1682869615.0,286047000.2,N
1682869615.9,286047000.2,N
1682869635.8,286047000.3,N
1682869655.6,286047000.3,N
1682869675.4,286046998.6,N
1682869695.3,286047000.7,N
1682869715.1,286046999.7,N
1682869735.8,286047001.8,N
1682869785.7,286047000.2,E
1682869795.6,286047000.6,N
1682869815.5,286046998.1,P
1682869835.3,286047000.7,N
1682869855.1,286046999.6,N
1682869875.9,286046996.6,Y
1682869895.7,286046998.6,P
1682869915.6,286046998.5,N
1682869935.4,286047002.4,P
1682869955.2,286047000.6,N
1682869975.1,286046998.1,N
1682869976.0,286046998.1,N
1682869995.8,286046998.5,N
1682870015.6,286047000.3,N
1682870035.5,286047000.2,N
1682870055.3,286046998.2,N
1682870075.2,286046998.6,N
1682870095.9,286047000.7,N
1682870115.7,286046998.4,N
1682870135.6,286046999.3,N
1682870155.4,286046996.8,N
1682870175.2,286046998.7,N
1682870195.1,286047000.4,N
1682870196.0,286047000.4,N
1682870215.8,286046998.5,N
1682870235.7,286046998.5,N
1682870255.5,286047001.1,N
1682870275.3,286046998.5,N
1682870295.2,286047000.5,N
1682870315.9,286047000.6,N
1682870335.7,286046998.5,N
1682870355.6,286047001.0,N
1682870375.4,286047000.6,N
1682870395.2,286047000.0,N
